GFSSW_sfc_30mbdewp_159.txt.gz
Dewpoint
52 52 53 53 53 53 54 54 54 54 55 55 55 56 57 57 57 50 21 21 32 72 69 66 59 55 62 52 46 52 33 36 42 45 51 55 54 58 60 57 59 61 59 61 65
52 52 52 52 52 53 54 54 54 54 54 55 55 56 57 58 51 34 27 42 59 68 57 47 41 44 37 36 39 36 28 25 41 47 51 54 54 57 55 59 61 60 63 64 65
51 51 52 52 52 52 53 53 54 54 54 54 55 56 57 58 31 15 51 55 65 59 47 33 34 28 20 30 33 34 25 26 37 49 53 52 56 57 54 56 60 59 62 64 65
50 50 51 51 51 52 52 52 53 53 53 54 55 56 58 51 10 32 61 54 65 43 32 22 21 21 25 26 23 21 25 28 44 53 52 52 56 56 55 54 60 61 63 64 65
50 50 50 51 51 51 51 52 52 53 53 54 55 56 54 27 19 41 62 66 63 38 22 19 22 26 19 25 19 18 27 30 45 53 52 56 55 55 56 60 62 63 64 64 64
49 50 50 50 50 51 51 52 52 52 53 54 55 57 42 23 27 50 58 58 46 31 22 19 18 24 24 21 15 33 42 46 51 53 55 53 56 55 60 61 62 63 63 64 64
50 50 50 49 50 50 51 52 51 52 53 56 55 54 36 24 31 35 46 35 38 24 19 18 22 26 24 20 26 40 44 48 50 52 54 53 52 51 59 60 61 62 63 63 64
50 50 50 50 50 51 51 51 51 53 56 55 57 53 25 29 35 36 28 28 27 20 19 20 21 19 26 24 32 38 40 37 47 50 54 50 43 56 59 59 59 60 61 62 63
50 50 50 50 50 50 50 51 53 57 56 58 53 45 26 37 34 36 28 22 23 18 17 22 19 17 20 21 34 36 32 36 43 49 51 48 44 57 58 57 57 59 60 61 62
50 50 50 50 50 50 49 50 51 55 57 56 53 38 31 28 34 34 32 19 17 19 13 17 21 17 20 22 25 33 33 36 39 45 48 48 45 56 57 55 55 57 58 59 59
50 50 50 49 49 49 48 32 29 30 40 36 34 30 27 31 32 34 32 16 14 15 9 17 12 8 12 16 25 35 34 35 39 43 44 44 45 52 56 55 53 56 57 58 58
50 50 50 49 48 49 40 26 26 25 18 22 22 32 32 31 25 29 29 28 14 6 15 14 7 12 19 22 27 33 35 35 32 40 43 42 43 46 55 55 54 54 56 57 58
49 49 50 49 48 38 38 31 32 30 22 22 24 22 21 28 25 26 28 22 16 12 13 6 7 16 19 22 25 28 34 33 33 32 41 39 37 43 51 56 56 56 57 57 58
49 49 49 48 30 40 30 34 35 32 21 21 23 24 33 29 25 28 30 21 15 9 14 12 14 16 18 18 19 22 24 25 22 23 19 35 14 39 44 53 55 56 56 57 57
49 49 49 48 41 32 28 36 33 29 7 16 22 28 34 23 26 29 25 22 15 14 14 8 12 15 15 16 19 18 21 21 22 20 29 34 23 30 47 48 50 52 53 54 55
49 49 48 45 43 39 39 36 29 22 13 19 23 23 29 26 26 26 23 24 19 12 13 11 14 13 14 15 17 20 19 21 24 22 17 27 23 23 40 43 45 49 51 52 54
49 48 47 45 30 38 36 22 15 18 23 16 20 24 25 23 23 27 22 24 20 12 10 12 9 11 13 11 16 16 16 18 18 17 17 27 32 26 36 39 42 43 49 51 52
48 48 44 43 45 42 31 14 10 16 20 22 17 20 21 23 20 27 23 24 21 12 11 5 1 9 11 10 13 13 14 19 17 15 15 27 26 23 35 36 39 44 45 49 51
48 41 39 40 43 42 22 10 8 16 20 18 17 15 12 21 21 22 25 24 22 13 1 7 4 13 13 12 13 17 12 14 16 21 14 14 22 21 27 26 31 33 42 46 48
41 38 32 39 44 33 15 7 11 12 15 14 15 16 12 15 20 19 24 26 25 17 13 15 7 12 12 12 15 14 17 11 16 13 12 15 22 15 25 26 30 33 35 41 48
38 26 35 43 37 25 12 10 11 11 15 13 14 17 17 16 19 21 19 20 26 19 14 15 15 17 19 12 5 15 13 20 16 18 13 13 15 29 27 27 28 31 35 39 45
36 16 32 35 30 27 21 21 17 13 11 10 12 11 15 12 12 16 21 21 24 20 18 16 14 11 16 20 20 11 9 15 11 21 22 18 14 24 28 30 31 29 39 45 46
36 33 34 32 23 22 28 28 23 16 11 10 8 9 12 12 11 12 13 13 18 21 22 19 16 14 13 16 18 17 20 19 20 24 20 15 14 27 28 31 35 35 40 47 51
35 24 31 36 33 31 31 30 24 23 19 16 13 12 11 11 13 11 9 10 10 17 19 19 21 19 13 15 17 17 18 20 18 17 18 18 17 23 24 27 31 38 40 47 53
35 28 34 29 31 29 33 32 30 28 30 29 18 15 12 10 12 10 12 11 9 14 21 18 18 21 19 21 21 17 16 17 18 17 18 17 21 22 29 29 32 40 45 46 48
33 31 34 29 31 31 29 30 32 30 32 27 29 30 29 20 15 12 11 13 12 11 13 29 18 24 17 17 17 17 17 17 18 17 21 16 22 27 32 35 34 37 44 45 48
38 40 37 29 27 26 25 31 31 29 30 32 31 28 30 31 33 33 32 29 25 25 22 20 27 26 19 20 18 17 18 18 18 20 19 19 22 24 28 31 32 35 43 44 47

GFSSW_sfc_30mbdewp_162.txt.gz
Dewpoint
52 52 53 53 53 53 54 54 54 54 54 55 56 56 57 58 57 50 26 27 44 72 68 57 55 57 56 49 46 44 29 27 34 36 41 46 51 56 56 56 55 58 57 60 63
52 52 52 52 53 53 54 54 54 54 54 55 55 56 57 58 46 32 33 45 65 71 54 50 41 42 34 28 33 32 26 26 37 41 42 44 48 53 53 56 58 57 59 62 63
51 51 51 51 52 52 53 53 54 54 54 54 55 56 57 57 36 15 50 53 70 68 44 39 27 32 20 21 28 29 24 24 38 43 44 44 47 51 51 52 56 57 59 61 62
50 50 50 51 51 51 52 52 53 53 53 54 55 55 57 48 16 33 56 62 70 52 34 28 24 19 16 22 24 23 24 24 40 46 44 44 46 46 49 50 56 58 60 61 61
49 49 50 50 50 51 51 51 53 53 53 54 54 56 52 31 23 38 62 62 59 47 27 17 15 16 16 21 20 21 27 29 45 47 44 48 47 46 48 55 57 59 60 61 61
49 49 49 50 50 51 51 52 52 52 53 54 55 56 42 23 30 42 52 50 45 32 17 14 14 15 18 21 18 32 38 31 45 48 50 45 49 45 53 57 58 60 60 60 60
49 50 50 50 50 51 51 52 51 52 54 55 56 53 32 21 26 32 46 44 41 32 16 14 14 15 16 19 29 41 41 43 46 49 49 47 46 44 53 56 58 59 59 59 60
50 50 50 51 51 51 51 51 51 54 56 57 56 48 23 28 27 29 32 31 34 32 18 15 17 17 20 22 33 36 39 36 46 48 50 45 38 51 52 53 55 56 57 59 60
50 50 50 50 50 50 50 51 52 58 57 58 52 40 22 35 30 25 25 27 23 20 18 17 17 15 17 17 28 34 24 29 42 44 48 44 42 52 50 50 51 54 55 56 58
50 50 50 50 50 49 50 50 53 56 56 52 48 37 29 26 33 27 28 25 22 18 16 15 14 11 13 19 19 21 26 24 31 43 45 43 41 51 51 48 48 50 53 54 54
50 50 50 50 49 48 46 34 37 41 46 30 29 23 23 29 32 31 27 19 19 20 10 13 8 7 12 22 22 23 23 22 28 40 42 38 40 43 52 49 46 47 50 51 52
50 50 49 49 48 47 41 24 25 25 19 17 18 29 31 29 26 31 28 26 21 16 12 9 6 9 15 18 22 24 24 22 33 39 40 36 38 40 47 50 47 46 47 49 50
50 50 49 49 47 39 34 26 28 27 21 15 17 16 17 27 24 25 31 29 23 11 10 6 5 9 11 15 20 24 23 22 24 36 38 35 32 37 40 48 49 48 47 49 48
50 49 49 48 36 31 29 30 27 29 18 17 19 21 19 20 19 23 30 27 23 9 7 5 5 7 12 15 21 23 25 23 28 28 21 33 19 22 31 42 48 49 50 49 49
50 49 48 48 36 28 26 28 26 29 12 16 20 25 26 17 10 19 29 26 14 7 5 5 5 9 10 14 21 23 26 26 28 25 21 23 20 19 37 39 46 47 49 51 49
49 48 48 39 36 34 32 27 27 22 13 14 20 23 23 20 17 20 24 29 21 7 10 3 10 9 9 14 20 22 22 25 24 23 19 20 22 17 26 36 41 46 47 50 51
49 48 47 40 21 34 33 21 14 14 19 12 16 20 18 18 17 24 22 26 21 11 7 4 8 10 11 13 18 21 22 20 19 19 18 21 22 21 21 27 31 38 44 47 50
48 47 38 37 37 37 29 15 12 14 15 19 15 17 18 17 15 19 19 22 23 12 3 2 1 8 11 13 16 19 21 18 18 17 18 25 19 20 24 25 27 34 39 44 47
48 31 31 34 40 39 24 11 12 14 15 14 16 13 15 18 15 18 18 19 22 19 4 2 1 4 7 8 16 18 19 21 19 19 19 19 20 22 23 20 22 26 33 40 43
38 30 26 39 40 35 16 8 11 11 13 16 14 14 11 12 17 14 19 17 19 22 12 7 4 4 6 9 10 17 21 19 19 17 18 18 18 17 18 20 18 23 25 31 39
36 22 34 39 37 29 11 6 6 10 10 13 14 14 14 11 14 15 14 16 17 22 20 8 6 5 4 7 7 11 15 19 18 18 16 17 17 20 21 22 21 22 21 26 33
33 18 32 35 27 19 14 14 16 9 9 9 11 14 16 15 15 15 17 15 20 20 20 15 9 7 8 7 6 9 11 17 16 18 16 16 15 19 20 20 22 25 23 37 38
30 26 26 31 14 14 20 23 21 15 8 6 9 11 14 15 15 13 14 16 19 20 22 20 13 10 6 12 15 9 5 9 14 15 15 15 16 20 22 22 21 28 31 38 47
32 19 22 31 28 26 23 23 20 21 18 13 10 11 11 12 15 17 13 12 16 21 24 24 16 15 10 9 10 12 8 7 9 9 10 14 18 18 22 21 20 19 25 38 47
30 23 28 19 28 28 27 23 23 22 24 27 18 14 13 12 13 14 13 11 12 14 21 24 22 21 20 15 9 10 12 14 15 12 9 9 11 19 21 23 22 20 24 40 46
28 26 29 24 24 23 24 24 26 27 30 23 26 27 26 16 15 13 13 13 14 14 20 21 23 24 21 21 19 15 14 13 12 13 13 12 14 18 21 22 24 28 35 37 45
34 33 33 26 22 20 14 18 27 27 28 31 30 29 27 27 31 31 30 26 25 24 19 21 19 25 19 19 17 16 18 17 15 15 14 13 15 18 19 23 25 29 30 31 37

GFSSW_sfc_30mbdewp_165.txt.gz
Dewpoint
52 52 52 53 53 54 54 54 54 54 54 55 56 56 57 58 57 51 33 31 40 67 69 57 54 52 51 47 43 39 33 28 30 32 35 42 44 50 53 54 54 55 57 62 63
51 51 51 52 52 53 54 54 54 54 54 55 55 56 57 57 47 34 38 49 59 66 55 47 44 40 41 30 28 29 24 26 34 35 33 41 43 47 50 52 54 55 59 61 63
50 50 51 51 51 52 53 53 53 54 54 54 55 56 57 56 38 21 49 56 62 66 40 42 35 30 28 22 24 26 23 27 36 34 34 39 43 46 47 48 52 55 58 59 60
50 50 50 50 51 51 52 52 53 54 54 54 55 55 57 46 22 37 52 60 66 50 38 35 31 23 21 20 25 23 24 30 37 35 36 37 41 44 45 48 52 56 58 59 59
50 49 50 50 51 51 51 52 53 53 53 54 54 55 49 36 25 47 57 63 54 48 37 27 23 22 19 20 24 22 26 33 38 38 36 37 38 40 43 49 53 56 58 58 58
50 51 51 51 51 51 52 52 53 53 53 54 55 56 39 23 25 33 38 45 38 41 32 24 17 18 17 19 22 28 29 32 39 39 40 36 37 40 45 51 53 56 57 57 57
50 51 51 51 51 51 51 52 52 52 54 56 56 52 28 23 23 31 40 41 37 32 26 20 15 15 17 20 23 35 29 35 39 41 40 40 39 39 46 50 53 54 56 56 57
51 51 51 51 51 51 51 51 51 52 57 57 58 46 28 23 24 24 36 37 36 34 21 15 14 14 15 22 25 31 29 31 38 40 41 43 38 41 46 48 51 53 54 56 57
50 50 50 50 50 50 50 50 51 54 57 56 51 43 24 27 22 23 27 30 32 32 27 16 13 13 17 19 23 27 27 30 34 39 37 44 41 42 43 46 48 51 52 54 55
50 50 50 50 49 49 49 49 50 56 56 51 45 37 28 24 21 22 24 29 24 18 16 13 12 11 15 20 17 22 23 34 29 33 36 35 39 45 42 42 45 47 49 51 52
50 50 50 49 49 48 47 35 39 43 41 27 29 20 21 25 30 22 25 27 22 15 10 12 9 12 20 18 18 20 25 28 24 30 33 33 33 43 45 43 42 44 47 48 49
50 50 49 49 48 47 45 26 23 24 19 21 23 28 23 23 23 20 28 24 21 15 9 8 7 14 20 21 18 20 21 20 23 32 30 31 31 34 45 44 43 43 43 45 47
50 50 49 49 47 43 30 24 25 23 19 16 15 13 22 24 20 22 26 22 19 14 10 5 8 12 17 19 19 21 21 22 24 30 29 27 28 30 35 45 44 44 43 43 43
49 49 49 48 39 26 28 28 23 24 18 15 14 13 11 17 19 21 25 21 21 15 10 7 9 11 15 18 18 19 20 20 21 28 25 25 19 25 29 36 43 44 44 43 41
49 49 49 48 39 27 25 25 22 26 15 18 16 18 11 11 11 17 25 26 21 18 12 6 5 8 13 16 18 18 21 20 21 24 22 25 21 18 25 26 36 42 43 44 43
49 49 48 35 33 29 27 25 23 22 16 13 18 17 15 10 9 11 20 24 22 18 14 5 6 6 11 16 18 20 21 22 21 23 21 19 19 17 22 25 29 40 42 44 44
48 48 46 41 23 27 28 23 15 16 19 14 15 14 17 12 9 11 15 21 20 15 9 4 2 5 9 13 19 19 20 21 19 18 18 20 19 18 21 24 29 33 40 42 46
48 46 40 34 29 29 28 19 14 16 16 16 13 13 14 11 9 14 15 19 21 17 7 5 1 5 6 11 17 18 18 19 18 18 17 20 18 22 22 22 23 27 36 40 43
47 32 25 25 32 34 24 14 15 17 16 14 13 12 13 11 11 15 16 15 20 20 11 5 4 4 6 7 14 17 18 20 19 19 17 17 20 23 22 22 22 22 27 35 39
40 35 26 27 32 32 20 13 14 14 13 14 14 13 12 12 12 10 15 15 14 19 16 8 3 2 4 6 10 15 20 18 19 17 16 18 20 22 21 21 21 19 22 28 35
39 23 29 32 34 28 15 10 11 12 11 11 14 15 14 12 13 13 12 14 14 15 18 13 7 5 4 4 3 10 15 18 17 18 16 18 19 22 21 21 21 20 22 23 28
30 22 28 27 23 20 15 13 11 9 9 9 11 14 16 16 14 12 12 13 15 14 16 18 8 6 3 4 6 4 9 13 17 20 18 17 16 20 20 22 23 23 22 23 29
30 25 23 22 9 7 11 10 12 14 12 10 9 10 13 16 18 16 14 15 15 14 14 19 15 8 7 5 5 4 5 8 14 18 18 18 17 19 21 21 22 22 22 24 30
30 20 19 22 18 14 17 18 20 22 19 17 13 9 10 12 16 19 17 15 16 17 27 21 17 13 7 9 6 5 4 6 9 11 13 13 17 18 19 22 23 23 23 22 27
29 22 23 20 20 21 21 20 18 17 19 19 19 14 11 12 14 16 19 15 13 17 18 20 19 15 11 9 7 8 8 6 4 7 10 11 12 15 20 21 23 23 24 23 23
32 27 26 23 20 20 20 16 18 15 16 24 23 22 16 14 15 15 16 16 14 13 16 19 20 20 16 12 12 11 9 9 7 3 6 8 10 12 14 19 22 24 25 24 27
38 36 32 24 20 17 15 13 12 27 25 24 29 30 27 24 28 29 29 29 26 23 17 18 19 22 20 17 16 14 15 10 10 9 8 10 12 12 13 17 22 23 25 25 23

GFSSW_sfc_30mbdewp_168.txt.gz
Dewpoint
51 51 52 52 53 53 53 54 54 54 54 55 56 56 57 58 56 51 39 31 47 61 63 52 55 54 50 47 46 41 32 37 30 32 37 42 45 50 52 51 55 57 59 59 59
51 51 51 51 52 53 54 54 54 54 54 55 55 56 57 58 45 32 30 47 56 60 48 43 44 43 39 39 31 27 26 29 32 33 38 39 43 47 48 49 52 58 59 61 59
50 50 50 50 51 52 53 53 54 54 54 54 55 56 57 56 35 26 58 57 56 58 30 36 38 35 29 28 22 25 23 33 31 31 37 39 43 45 45 47 55 58 59 60 60
50 50 50 50 50 51 52 52 53 54 54 54 55 55 56 45 23 34 49 54 58 44 34 31 35 33 24 23 23 22 23 33 32 32 35 39 43 43 46 47 52 56 60 60 60
50 50 50 50 50 50 51 52 53 53 53 54 55 56 48 33 28 45 57 61 52 41 32 31 30 30 23 21 22 21 26 34 34 33 33 37 38 41 42 49 54 56 57 61 61
51 51 51 51 51 51 51 52 52 53 53 53 56 56 40 20 20 41 38 44 34 35 32 31 28 25 22 18 21 22 25 34 34 35 35 32 34 39 46 50 54 55 55 56 59
52 51 51 51 51 51 51 51 51 52 52 54 58 51 28 23 22 25 29 37 34 31 32 30 26 19 18 18 22 26 25 33 35 37 36 37 36 39 46 50 52 54 54 54 55
51 51 51 50 50 50 50 50 51 51 53 57 58 46 24 22 23 22 23 31 34 30 28 30 22 19 16 17 21 26 27 29 35 37 40 44 36 38 45 48 50 52 53 53 55
51 50 50 50 50 49 49 49 50 52 55 58 51 41 27 27 25 21 21 30 31 30 28 25 15 13 14 15 18 23 27 31 35 36 42 44 44 40 43 46 48 51 52 53 54
50 50 50 50 49 49 49 48 48 51 54 49 43 39 37 23 21 18 20 27 28 29 27 21 14 11 13 17 16 21 26 34 35 34 42 45 42 45 42 45 47 49 51 52 53
50 50 49 49 49 48 46 39 39 43 40 32 24 21 14 26 20 17 19 21 25 23 21 20 11 11 16 17 18 19 32 36 33 32 33 45 43 44 40 42 44 46 48 49 51
50 49 49 49 48 47 46 37 23 22 19 24 34 30 28 20 23 20 19 22 22 13 13 9 8 13 18 18 17 18 22 32 34 35 31 28 40 41 39 39 41 43 45 46 48
50 49 49 49 46 44 25 26 23 20 18 18 16 22 26 21 21 20 17 22 20 14 8 6 8 12 18 20 19 17 18 23 29 30 31 26 31 35 42 38 40 42 43 44 45
50 49 48 48 37 30 28 26 22 20 19 17 16 14 14 20 18 19 18 21 19 15 12 6 7 10 14 18 20 18 19 21 24 27 28 28 20 27 33 41 39 41 42 42 43
49 49 48 47 39 33 26 23 22 21 17 17 15 16 12 13 15 17 20 22 17 16 12 9 5 6 11 15 18 18 18 19 19 24 26 27 25 24 27 35 41 40 42 42 42
49 48 47 35 35 35 27 24 23 19 18 16 14 13 10 8 11 14 17 22 20 16 16 11 9 6 8 13 16 18 17 18 19 18 20 23 24 22 25 28 35 39 41 42 43
48 48 45 40 26 27 25 23 16 16 17 15 15 15 11 6 6 9 13 21 19 17 17 15 12 6 6 8 15 16 16 16 20 20 16 23 21 23 21 25 27 33 39 42 44
48 46 40 35 36 33 23 20 17 17 16 15 14 15 11 9 6 6 11 15 20 19 17 16 10 7 4 6 10 15 15 16 19 20 16 19 19 21 21 25 27 34 37 40 43
47 33 30 26 29 27 23 14 17 19 18 15 14 12 12 13 9 6 5 11 16 18 16 12 9 5 4 3 7 13 14 17 16 20 18 18 19 21 23 23 23 25 35 38 41
40 36 34 29 24 27 22 17 15 17 16 14 14 14 11 13 10 8 7 11 12 16 18 14 8 6 2 5 6 10 16 16 16 17 19 18 21 21 26 24 23 23 21 38 39
39 28 23 24 27 25 19 15 13 14 15 13 13 14 15 12 12 10 8 13 14 14 17 17 13 8 6 3 3 3 9 16 16 17 18 19 19 28 31 26 25 24 22 26 36
31 22 24 27 21 19 16 15 16 12 11 12 12 13 14 16 18 14 12 12 15 14 13 17 15 12 6 3 5 4 7 14 18 21 19 21 18 20 27 26 25 22 24 25 26
31 26 25 23 17 12 10 11 12 12 10 10 10 10 12 13 16 19 18 14 14 13 13 15 16 15 10 7 4 3 4 9 14 19 21 19 19 22 21 22 26 25 27 26 27
32 25 20 19 16 12 8 7 8 10 9 11 15 12 12 12 14 17 20 18 14 13 21 19 15 18 13 9 5 5 3 4 6 15 16 18 21 24 24 23 24 26 27 25 30
31 32 31 27 25 23 23 11 18 21 20 19 19 17 16 14 13 14 17 20 17 16 18 17 18 20 16 13 9 5 5 5 5 10 8 12 17 21 24 27 25 29 31 31 31
32 35 38 31 22 22 21 20 19 20 19 19 18 18 20 17 15 17 24 20 21 21 16 18 21 20 18 17 13 10 8 6 4 4 7 9 12 17 21 21 24 30 31 31 34
39 40 37 29 22 16 17 19 14 12 14 21 23 27 29 28 28 28 28 28 28 29 28 19 20 24 20 19 15 10 10 8 8 8 7 7 13 15 16 21 25 25 31 33 32

GFSSW_sfc_30mbdewp_171.txt.gz
Dewpoint
51 51 51 52 52 52 53 53 53 54 54 55 55 56 57 58 56 49 39 34 42 59 66 59 56 55 55 55 51 48 43 32 35 38 40 49 50 56 58 59 59 59 61 63 64
50 50 50 50 51 52 53 53 54 54 54 55 55 56 57 57 49 33 32 39 46 63 50 42 43 46 49 44 40 41 42 35 37 39 41 46 48 49 56 58 58 58 61 63 63
50 50 50 50 50 51 52 53 53 54 54 54 55 56 57 57 43 28 55 47 53 58 38 28 31 36 36 35 29 27 33 31 35 39 42 45 46 49 53 57 58 57 58 59 59
51 50 49 50 50 50 51 52 52 53 53 53 54 55 57 51 14 32 57 58 57 54 39 25 27 31 34 33 29 23 32 32 35 40 41 43 45 45 56 58 59 60 58 58 57
51 50 50 50 50 50 50 51 52 52 52 53 54 57 50 39 28 27 49 61 58 48 36 29 28 30 32 31 26 21 32 31 33 36 41 43 41 48 56 59 59 60 59 58 58
51 51 51 51 51 51 51 51 51 52 52 53 54 58 45 16 20 21 42 52 44 41 33 28 30 30 30 27 22 22 32 32 33 33 35 38 40 48 53 58 59 59 59 59 59
51 51 51 50 50 50 51 51 51 51 51 53 55 55 38 19 23 43 43 41 39 36 31 28 30 30 27 22 20 18 28 33 35 35 32 36 41 47 53 54 58 59 60 59 60
51 51 51 50 50 50 50 50 50 50 52 54 58 52 30 22 22 22 23 32 37 35 29 29 31 29 24 22 15 15 21 33 36 36 36 37 39 47 52 54 54 55 58 61 61
51 51 50 50 49 49 49 49 50 52 54 57 52 49 31 28 26 25 23 21 31 33 29 28 28 26 19 16 13 17 20 31 36 40 42 41 37 46 50 52 54 54 54 55 61
50 50 50 49 49 48 48 47 47 50 53 54 46 40 39 35 24 27 24 22 23 29 28 25 24 20 13 12 12 15 24 36 36 38 43 43 40 42 48 49 51 53 53 53 56
50 49 49 49 48 48 46 42 37 42 41 39 34 33 22 22 30 22 19 19 22 28 27 27 21 13 12 12 14 17 35 33 36 39 43 40 37 42 44 48 49 51 53 53 53
49 49 49 49 48 46 47 39 24 21 18 21 29 33 32 26 26 21 17 17 21 24 26 25 21 16 15 14 16 17 32 34 36 40 40 41 37 42 43 45 48 50 52 53 54
49 49 49 49 46 44 31 29 26 22 18 18 19 19 26 32 30 18 16 17 19 23 21 21 19 18 14 15 16 19 19 36 34 36 34 41 40 41 43 44 47 48 50 52 52
50 49 49 48 35 34 32 27 23 22 18 20 19 18 18 28 26 24 19 17 20 21 19 15 14 11 10 12 18 19 20 20 34 33 31 38 32 42 42 41 43 45 48 49 50
49 49 49 47 41 39 32 34 29 23 15 21 17 18 16 21 20 20 21 17 18 20 17 12 8 8 9 12 15 19 22 23 30 30 30 31 26 35 42 38 39 43 45 46 48
49 49 48 40 36 36 35 31 24 20 17 20 15 13 13 17 20 18 17 17 20 21 18 16 13 8 7 13 15 17 18 19 20 26 26 28 28 26 40 39 39 42 43 45 45
48 47 46 43 33 23 36 30 19 17 20 16 12 13 11 9 12 15 16 16 17 18 18 17 13 11 8 6 13 14 15 16 18 18 19 23 24 26 29 37 41 40 43 43 44
47 47 43 36 39 39 35 22 18 18 17 18 15 13 11 8 7 9 14 15 19 20 18 17 17 14 10 6 8 12 14 15 17 20 20 24 22 25 29 32 43 42 43 44 44
46 38 35 33 30 31 28 17 17 19 20 15 16 15 14 11 7 7 8 13 20 20 18 16 17 18 15 10 7 6 14 17 16 18 21 22 22 25 28 28 39 42 42 44 44
43 40 36 36 32 28 25 20 17 17 18 16 14 16 15 12 8 6 6 9 14 22 21 21 20 20 15 12 6 5 12 15 15 14 16 20 23 22 22 27 32 38 40 43 45
42 29 25 24 29 25 22 22 19 18 15 13 13 12 14 15 14 10 7 7 12 15 20 19 19 19 14 7 4 3 4 9 16 19 18 19 21 30 24 29 28 31 38 42 43
35 28 26 27 23 24 22 22 21 17 16 14 15 13 12 15 16 17 13 9 9 13 15 18 18 16 18 8 5 6 5 8 12 17 21 18 18 29 31 28 32 28 25 38 42
34 31 29 27 21 20 20 17 14 13 12 12 12 13 13 14 13 18 20 21 17 14 14 17 17 15 18 20 8 3 6 7 8 17 18 20 19 26 25 29 27 28 28 34 40
35 27 34 36 35 31 26 19 12 10 8 10 10 12 15 16 15 16 17 16 18 20 22 20 18 17 16 19 16 4 5 6 7 7 15 22 19 22 25 25 30 28 34 33 33
31 28 34 34 34 34 30 26 23 19 20 23 13 14 17 17 19 19 26 29 30 32 29 20 15 20 18 18 17 13 7 5 5 9 11 17 22 20 23 31 31 31 29 29 33
33 35 36 36 36 28 27 25 20 18 19 21 21 20 22 25 29 27 27 28 29 29 31 32 23 21 21 17 16 15 14 6 5 5 9 12 13 18 23 28 29 31 36 34 34
34 37 36 32 28 27 33 28 25 24 22 19 24 25 27 24 26 26 26 26 27 28 28 31 33 24 19 22 21 19 18 16 9 8 6 6 14 14 16 20 27 37 39 35 33

GFSSW_sfc_30mbdewp_174.txt.gz
Dewpoint
52 51 51 51 51 51 52 52 53 53 53 54 55 56 57 57 56 48 26 28 38 60 66 64 64 60 61 59 63 54 47 43 38 48 52 57 57 59 60 60 60 60 60 60 63
52 51 50 50 50 51 52 52 52 53 53 54 54 55 57 57 50 34 29 40 45 63 51 49 48 52 52 52 49 48 43 41 39 49 51 56 57 58 58 59 59 60 60 62 64
50 50 50 50 50 51 52 52 53 53 53 53 54 55 56 57 38 21 54 59 53 62 43 38 31 25 29 35 35 33 36 39 38 45 49 55 57 58 57 58 60 60 59 61 63
50 50 50 49 50 50 50 51 52 52 52 52 54 55 57 53 8 29 54 56 63 56 45 31 25 26 30 32 34 29 28 39 43 46 46 47 56 58 57 57 61 61 60 62 63
50 50 50 50 50 50 50 50 52 52 52 52 53 55 51 37 21 18 54 56 62 50 38 32 27 26 28 32 31 26 33 40 42 43 43 46 53 57 58 58 60 61 61 61 60
50 51 51 51 51 51 51 51 51 51 51 52 53 55 43 9 13 21 38 50 44 40 34 35 28 29 29 29 27 22 30 37 41 42 43 50 57 57 59 58 58 58 58 58 58
50 51 50 50 50 50 50 50 50 50 51 52 54 55 46 13 19 31 41 41 43 38 31 32 29 28 30 28 24 17 22 34 36 39 42 50 55 56 59 59 58 57 57 58 57
50 50 50 50 50 50 50 49 49 50 51 53 55 55 30 29 26 20 16 20 24 41 35 31 29 28 28 28 21 15 21 32 34 34 40 44 47 57 59 58 58 58 58 58 58
50 50 50 50 49 49 49 48 49 50 53 58 54 51 21 36 33 24 21 20 21 30 33 31 28 27 28 22 15 16 20 33 36 37 38 41 47 56 59 58 58 58 59 59 59
50 50 50 49 49 48 48 48 49 51 53 54 50 39 36 26 35 26 23 22 22 34 32 28 26 24 20 17 13 14 27 34 37 39 38 40 45 52 55 58 58 59 59 59 59
50 50 50 49 49 48 47 43 29 32 43 33 33 33 29 27 27 27 24 23 22 31 27 28 23 21 22 18 14 13 14 35 36 40 43 38 42 50 53 54 54 54 55 59 60
50 50 49 49 48 47 47 28 30 27 21 22 28 33 31 32 31 31 24 21 20 21 27 27 23 23 19 14 13 13 13 22 36 38 42 40 40 47 50 52 53 53 53 54 60
49 49 49 49 47 38 32 28 32 31 19 19 19 20 23 28 29 31 24 19 18 19 26 25 25 24 19 15 14 13 15 19 33 38 41 41 38 42 47 49 51 52 53 53 55
49 49 49 48 27 40 29 34 31 30 18 18 18 18 19 25 27 30 30 16 17 18 24 25 26 24 22 17 15 14 16 21 26 35 34 39 35 39 42 45 48 50 52 53 53
49 48 48 47 43 38 23 33 32 24 11 19 19 20 20 22 24 25 27 16 16 19 22 21 21 21 20 18 15 13 17 20 22 32 32 37 32 34 41 42 44 48 50 52 53
48 47 47 44 42 39 35 35 30 19 13 19 16 16 18 21 21 23 21 17 17 16 21 21 17 18 16 13 12 12 14 18 19 31 29 30 32 32 40 40 42 45 48 51 52
47 46 46 44 33 33 38 32 17 17 20 18 14 14 15 17 18 19 18 15 15 15 16 20 17 15 9 9 9 12 14 12 14 19 25 30 29 31 34 40 42 42 46 48 50
46 46 44 39 44 43 35 21 16 19 16 17 16 16 12 14 16 19 16 16 17 17 18 18 17 18 15 8 6 7 13 13 12 15 17 24 26 26 31 39 43 42 45 46 48
46 40 40 37 35 36 30 16 14 19 18 16 15 16 11 10 11 13 12 15 16 19 17 17 18 20 17 12 9 6 11 14 14 20 18 21 23 25 29 39 42 40 43 44 46
42 40 39 35 33 29 28 21 18 21 20 16 13 14 11 12 12 9 8 9 15 17 20 19 16 17 18 17 13 6 7 9 16 11 12 16 20 21 26 29 40 40 42 43 45
38 33 31 29 30 28 24 24 22 21 22 18 16 13 13 12 13 14 7 7 12 18 19 19 20 19 20 18 15 10 5 11 13 16 14 14 15 24 22 30 41 41 42 43 44
38 22 27 32 22 24 23 22 23 21 22 19 15 13 12 12 12 15 16 9 13 14 19 20 19 17 18 19 16 12 8 4 2 5 20 17 15 24 27 32 42 43 42 43 45
35 33 33 37 31 31 32 29 24 21 19 14 12 12 12 10 11 16 19 20 29 22 20 21 18 15 16 17 20 12 6 6 11 15 10 18 16 26 28 26 30 36 40 43 44
37 29 32 38 34 33 33 31 27 27 23 20 17 17 10 9 12 17 23 26 29 34 35 33 18 16 14 15 17 14 5 6 5 5 7 13 14 19 21 21 20 24 32 39 44
35 29 35 30 30 35 34 30 28 27 25 21 22 25 21 11 25 27 27 27 27 29 29 28 16 17 16 16 19 15 8 4 4 4 3 5 10 20 23 29 29 31 34 38 41
34 33 34 33 34 34 35 32 32 30 27 22 20 25 21 21 23 22 22 25 26 26 28 28 20 18 15 16 18 17 17 6 4 6 10 8 8 24 23 29 25 33 32 35 39
37 36 35 30 30 32 33 34 34 28 26 26 25 23 24 24 21 19 20 23 25 25 26 29 28 23 15 18 18 16 17 16 10 7 7 8 10 12 17 23 26 28 32 35 36